Wisdom Guild ホーム

ショップ情報

登録データ

13,521 件

検索フィルター

カード名

値段

円 ~

在庫

枚 ~

カードショップはま屋登録済みカード一覧

カード名価格セット言語在庫状態最終更新最終チェック
ドミナリアの大修復The Mending of Dominaria200DOMENG8 枚売り場18/04/21 01:5918/04/22 01:53
カマールのドルイド的誓約Kamahl's Druidic Vow250DOMENG8 枚売り場18/04/21 01:5918/04/22 01:53
養育者、マーウィンMarwyn, the Nurturer150DOMENG8 枚売り場18/04/21 01:5918/04/22 01:53
刃の翼ヴェリックスVerix Bladewing500DOMENGなし売り場18/04/21 01:5918/04/22 01:53
双頭巨人Two-Headed Giant50DOMENG8 枚売り場18/04/21 01:5918/04/22 01:53
包囲攻撃の司令官Siege-Gang Commander150DOMENG8 枚売り場18/04/21 01:5918/04/22 01:53
不死身、スクイーSquee, the Immortal300DOMENG8 枚売り場18/04/21 01:5918/04/22 01:53
ヤヤの焼身猛火Jaya's Immolating Inferno50DOMENG8 枚売り場18/04/21 01:5918/04/22 01:53
でたらめな砲撃Haphazard Bombardment50DOMENG8 枚売り場18/04/21 01:5918/04/22 01:53
ヤヤ・バラードJaya Ballard1,000DOMENGなし売り場18/04/21 01:5918/04/22 01:53
カード名価格セット言語在庫状態リンク最終更新最終チェック
ゴブリンの鎖回しGoblin Chainwhirler200DOMENG8 枚売り場18/04/21 01:5918/04/22 01:53
ヨーグモスの不義提案Yawgmoth's Vile Offering200DOMENG8 枚売り場18/04/21 01:5918/04/22 01:53
最初の噴火The First Eruption100DOMENG8 枚売り場18/04/21 01:5918/04/22 01:53
飢饉の具現、トルガールTorgaar, Famine Incarnate550DOMENG8 枚売り場18/04/21 01:5918/04/22 01:53
ベルゼンロック典礼Rite of Belzenlok300DOMENG8 枚売り場18/04/21 01:5918/04/22 01:53
リッチの熟達Lich's Mastery200DOMENG8 枚売り場18/04/21 01:5918/04/22 01:53
ファイレクシア教典Phyrexian Scriptures700DOMENGなし売り場18/04/21 01:5918/04/22 01:53
センギアの純血、カザロフKazarov, Sengir Pureblood50DOMENG8 枚売り場18/04/21 01:5918/04/22 01:53
戦慄の影Dread Shade200DOMENG8 枚売り場18/04/21 01:5918/04/22 01:53
リッチの騎士、ジョス・ヴェスJosu Vess, Lich Knight400DOMENG8 枚売り場18/04/21 01:5918/04/22 01:53
カード名価格セット言語在庫状態リンク最終更新最終チェック
悪魔王ベルゼンロックDemonlord Belzenlok1,000DOMENGなし売り場18/04/21 01:5918/04/22 01:53
大嵐のジンTempest Djinn200DOMENG8 枚売り場18/04/21 01:5918/04/22 01:53
ランプのジン、ザヒードZahid, Djinn of the Lamp350DOMENG8 枚売り場18/04/21 01:5918/04/22 01:53
前知の場Precognition Field200DOMENG8 枚売り場18/04/21 01:5918/04/22 01:53
練達の魔術師、ナル・メハNaru Meha, Master Wizard400DOMENGなし売り場18/04/21 01:5918/04/22 01:53
ミラーリ予想The Mirari Conjecture50DOMENG8 枚売り場18/04/21 01:5918/04/22 01:53
反復の学部長、ナバンNaban, Dean of Iteration200DOMENG8 枚売り場18/04/21 01:5918/04/22 01:53
アンティキティー戦争The Antiquities War250DOMENG8 枚売り場18/04/21 01:5918/04/22 01:53
カーンの経時隔離Karn's Temporal Sundering100DOMENG8 枚売り場18/04/21 01:5918/04/22 01:53
ウルザの殲滅破Urza's Ruinous Blast100DOMENG8 枚売り場18/04/21 01:5918/04/22 01:53
カード名価格セット言語在庫状態リンク最終更新最終チェック
豊潤の声、シャライShalai, Voice of Plenty900DOMENG8 枚売り場18/04/21 01:5918/04/22 01:53
祖神の使徒、テシャールTeshar, Ancestor's Apostle200DOMENG8 枚売り場18/04/21 01:5918/04/22 01:53
黎明をもたらす者ライラLyra Dawnbringer2,800DOMENGなし売り場18/04/21 01:5918/04/22 01:53
スランの崩落Fall of the Thran300DOMENG8 枚売り場18/04/21 01:5918/04/22 01:53
ベナリア史History of Benalia2,500DOMENGなし売り場18/04/21 01:5918/04/22 01:53
ハルシオンの目撃者、エヴラEvra, Halcyon Witness50DOMENG8 枚売り場18/04/21 01:5918/04/22 01:53
ベナリアの軍司令Benalish Marshal250DOMENG8 枚売り場18/04/21 01:5918/04/22 01:53
勇敢な考古学者Daring Archaeologist50DOMENG8 枚売り場18/04/21 01:5918/04/22 01:53
ウルザの後継、カーンKarn, Scion of Urza4,500DOMENGなし売り場18/04/21 01:5918/04/22 01:53
勇敢な考古学者Daring Archaeologist50DOMJPN16 枚売り場18/04/21 01:5918/04/22 01:53
カード名価格セット言語在庫状態リンク最終更新最終チェック
ハルシオンの目撃者、エヴラEvra, Halcyon Witness50DOMJPN16 枚売り場18/04/21 01:5918/04/22 01:53
ベナリアの軍司令Benalish Marshal250DOMJPN16 枚売り場18/04/21 01:5918/04/22 01:53
鉄葉のチャンピオンSteel Leaf Champion700DOMJPN10 枚売り場18/04/21 01:5918/04/22 01:53
刃の翼ヴェリックスVerix Bladewing500DOMJPNなし売り場18/04/21 01:5918/04/22 01:53
ヤヤの焼身猛火Jaya's Immolating Inferno50DOMJPN16 枚売り場18/04/21 01:5918/04/22 01:53
包囲攻撃の司令官Siege-Gang Commander150DOMJPN12 枚売り場18/04/21 01:5918/04/22 01:53
ベルゼンロック典礼Rite of Belzenlok300DOMJPN16 枚売り場18/04/21 01:5918/04/22 01:53
飢饉の具現、トルガールTorgaar, Famine Incarnate550DOMJPN16 枚売り場18/04/21 01:5918/04/22 01:53
ファイレクシア教典Phyrexian Scriptures700DOMJPNなし売り場18/04/21 01:5918/04/22 01:53
前知の場Precognition Field200DOMJPN16 枚売り場18/04/21 01:5918/04/22 01:53

免責事項

本システムは、各カードショップ様の了承のもと自動的にシングルカード価格データを収集・解析し提供しております。 実際の販売価格や在庫は変動しますので、この価格で販売されることを保証するものではありません。 また、カードの状態や販売方法などは各カードショップ様によって異なる他、データは自動解析されたものですので、誤記等が存在する可能性もあります。 購入時に各ショップ様のウェブサイトにてよく御確認ください。
特記無き価格情報は、税込価格です。ショップでの表示が税抜のみの場合は、独自に消費税相当額を加算しています。
本システムを利用したことによるいかなる損害も保証致しかねますので、御認識の程宜しく御願い致します。
© 1999-2018 Wisdom Guild, OWLAIR networks, All rights reserved.
管理者連絡先 | 権利表記 (実行時間:0.34 秒)